Location: Bratsk-Energetik
(56.3300°N, 101.7600°E)
Time: 23:54:46
(UTC+08:00)

ISS - Pass Details

Date: 15 May 2021
Orbit: 417 x 422 km, 51.6° (Epoch: 13 June)

Event Time Altitude Azimuth Distance (km) Brightness Sun altitude
Exits shadow 01:52:04 11° 252° (WSW) 1,466 -1.3 -14.3°
Maximum altitude 01:55:06 36° 184° (S) 682 -3.2 -14.2°
Drops below altitude 10° 01:58:14 10° 116° (ESE) 1,507 -1.1 -14.2°
Sets 02:00:26 0° 108° (ESE) 2,372 0.0 -14.1°
